Time,TemperatureF,DewpointF,PressureIn,WindDirection,WindDirectionDegrees,WindSpeedMPH,WindSpeedGustMPH,Humidity,HourlyPrecipIn,Conditions,Clouds,dailyrainin,SoftwareType,DateUTC
2013-06-20 00:02:00,78.0,72.0,30.01,SSW,195,0.0,1.0,82,0.00,,,0.00,,2013-06-20 04:02:00,
2013-06-20 00:11:00,78.0,72.0,30.01,SSW,195,0.0,1.0,82,0.00,,,0.00,,2013-06-20 04:11:00,
2013-06-20 00:23:00,78.0,73.0,30.01,SSW,195,0.0,1.0,84,0.00,,,0.00,,2013-06-20 04:23:00,
2013-06-20 00:34:00,78.0,73.0,30.01,SSW,195,0.0,1.0,84,0.00,,,0.00,,2013-06-20 04:34:00,
2013-06-20 00:44:00,78.0,73.0,30.01,SSW,195,0.0,1.0,84,0.00,,,0.00,,2013-06-20 04:44:00,
2013-06-20 00:54:00,78.0,73.0,30.02,SSW,195,0.0,0.0,85,0.00,,,0.00,,2013-06-20 04:54:00,
2013-06-20 01:02:00,78.0,73.0,30.02,SSW,195,0.0,0.0,85,0.00,,,0.00,,2013-06-20 05:02:00,
2013-06-20 01:12:00,78.0,73.0,30.02,SSW,195,0.0,0.0,85,0.00,,,0.00,,2013-06-20 05:12:00,
2013-06-20 01:22:00,78.0,73.0,30.03,SSW,195,0.0,0.0,86,0.00,,,0.00,,2013-06-20 05:22:00,
2013-06-20 01:33:00,78.0,73.0,30.03,SSW,195,0.0,0.0,86,0.00,,,0.00,,2013-06-20 05:33:00,
2013-06-20 01:44:00,78.0,73.0,30.03,SSW,195,0.0,0.0,86,0.00,,,0.00,,2013-06-20 05:44:00,
2013-06-20 01:53:00,77.0,73.0,30.02,SSW,195,0.0,1.0,88,0.00,,,0.00,,2013-06-20 05:53:00,
2013-06-20 02:02:00,77.0,73.0,30.02,SSW,195,0.0,1.0,88,0.00,,,0.00,,2013-06-20 06:02:00,
2013-06-20 02:11:00,77.0,73.0,30.02,SSW,195,0.0,1.0,88,0.00,,,0.00,,2013-06-20 06:11:00,
2013-06-20 02:22:00,77.0,74.0,30.02,SSW,195,0.0,0.0,89,0.00,,,0.00,,2013-06-20 06:22:00,
2013-06-20 02:33:00,77.0,74.0,30.02,SSW,195,0.0,0.0,89,0.00,,,0.00,,2013-06-20 06:33:00,
2013-06-20 02:43:00,77.0,74.0,30.02,SSW,195,0.0,0.0,89,0.00,,,0.00,,2013-06-20 06:43:00,
2013-06-20 02:53:00,77.0,74.0,30.00,SSW,195,0.0,0.0,89,0.00,,,0.00,,2013-06-20 06:53:00,
2013-06-20 03:01:00,77.0,74.0,30.00,SSW,195,0.0,0.0,89,0.00,,,0.00,,2013-06-20 07:01:00,
2013-06-20 03:12:00,77.0,74.0,30.00,SSW,195,0.0,0.0,89,0.00,,,0.00,,2013-06-20 07:12:00,
2013-06-20 03:22:00,77.0,74.0,29.99,SSW,195,0.0,0.0,90,0.00,,,0.00,,2013-06-20 07:22:00,
2013-06-20 03:34:00,77.0,74.0,29.99,SSW,195,0.0,0.0,90,0.00,,,0.00,,2013-06-20 07:34:00,
2013-06-20 03:44:00,77.0,74.0,29.99,SSW,195,0.0,0.0,90,0.00,,,0.00,,2013-06-20 07:44:00,
2013-06-20 03:53:00,76.0,73.0,29.99,SSW,195,1.0,2.0,91,0.00,,,0.00,,2013-06-20 07:53:00,
2013-06-20 04:02:00,76.0,73.0,29.99,SSW,195,1.0,2.0,91,0.00,,,0.00,,2013-06-20 08:02:00,
2013-06-20 04:11:00,76.0,73.0,29.99,SSW,195,1.0,2.0,91,0.00,,,0.00,,2013-06-20 08:11:00,
2013-06-20 04:22:00,76.0,73.0,29.99,SSW,195,0.0,0.0,91,0.00,,,0.00,,2013-06-20 08:22:00,
2013-06-20 04:34:00,76.0,73.0,29.99,SSW,195,0.0,0.0,91,0.00,,,0.00,,2013-06-20 08:34:00,
2013-06-20 04:43:00,76.0,73.0,29.99,SSW,195,0.0,0.0,91,0.00,,,0.00,,2013-06-20 08:43:00,
2013-06-20 04:53:00,76.0,74.0,29.98,SSW,195,0.0,0.0,92,0.00,,,0.00,,2013-06-20 08:53:00,
2013-06-20 05:02:00,76.0,74.0,29.98,SSW,195,0.0,0.0,92,0.00,,,0.00,,2013-06-20 09:02:00,
2013-06-20 05:12:00,76.0,74.0,29.98,SSW,195,0.0,0.0,92,0.00,,,0.00,,2013-06-20 09:12:00,
2013-06-20 05:22:00,76.0,73.0,29.98,SSW,206,0.0,0.0,91,0.00,,,0.00,,2013-06-20 09:22:00,
2013-06-20 05:33:00,76.0,73.0,29.98,SSW,206,0.0,0.0,91,0.00,,,0.00,,2013-06-20 09:33:00,
2013-06-20 05:43:00,76.0,73.0,29.98,SSW,206,0.0,0.0,91,0.00,,,0.00,,2013-06-20 09:43:00,
2013-06-20 05:52:00,76.0,74.0,29.99,SSW,206,0.0,0.0,92,0.00,,,0.00,,2013-06-20 09:52:00,
2013-06-20 06:01:00,76.0,74.0,29.99,SSW,206,0.0,0.0,92,0.00,,,0.00,,2013-06-20 10:01:00,
2013-06-20 06:11:00,76.0,74.0,29.99,SSW,206,0.0,0.0,92,0.00,,,0.00,,2013-06-20 10:11:00,
2013-06-20 06:22:00,75.0,73.0,29.99,SSW,206,0.0,0.0,92,0.00,,,0.00,,2013-06-20 10:22:00,
2013-06-20 06:34:00,75.0,73.0,29.99,SSW,206,0.0,0.0,92,0.00,,,0.00,,2013-06-20 10:34:00,
2013-06-20 06:43:00,75.0,73.0,29.99,SSW,206,0.0,0.0,92,0.00,,,0.00,,2013-06-20 10:43:00,
2013-06-20 06:53:00,75.0,73.0,30.01,SSW,206,0.0,0.0,92,0.00,,,0.00,,2013-06-20 10:53:00,
2013-06-20 07:02:00,75.0,73.0,30.01,SSW,206,0.0,0.0,92,0.00,,,0.00,,2013-06-20 11:02:00,
2013-06-20 07:12:00,75.0,73.0,30.01,SSW,206,0.0,0.0,92,0.00,,,0.00,,2013-06-20 11:12:00,
2013-06-20 07:22:00,75.0,73.0,30.01,SSW,206,0.0,0.0,93,0.00,,,0.00,,2013-06-20 11:22:00,
2013-06-20 07:34:00,75.0,73.0,30.01,SSW,206,0.0,0.0,93,0.00,,,0.00,,2013-06-20 11:34:00,
2013-06-20 07:43:00,75.0,73.0,30.01,SSW,206,0.0,0.0,93,0.00,,,0.00,,2013-06-20 11:43:00,
2013-06-20 07:53:00,76.0,74.0,30.03,SSW,206,0.0,1.0,92,0.00,,,0.00,,2013-06-20 11:53:00,
2013-06-20 08:02:00,76.0,74.0,30.03,SSW,206,0.0,1.0,92,0.00,,,0.00,,2013-06-20 12:02:00,
2013-06-20 08:12:00,76.0,74.0,30.03,SSW,206,0.0,1.0,92,0.00,,,0.00,,2013-06-20 12:12:00,
2013-06-20 08:22:00,77.0,74.0,30.03,SSW,206,0.0,0.0,90,0.00,,,0.00,,2013-06-20 12:22:00,
2013-06-20 08:34:00,77.0,74.0,30.03,SSW,206,0.0,0.0,90,0.00,,,0.00,,2013-06-20 12:34:00,
2013-06-20 08:43:00,77.0,74.0,30.03,SSW,206,0.0,0.0,90,0.00,,,0.00,,2013-06-20 12:43:00,
2013-06-20 08:53:00,79.0,74.0,30.04,SSW,206,0.0,2.0,84,0.00,,,0.00,,2013-06-20 12:53:00,
2013-06-20 09:02:00,79.0,74.0,30.04,SSW,206,0.0,2.0,84,0.00,,,0.00,,2013-06-20 13:02:00,
2013-06-20 09:11:00,79.0,74.0,30.04,SSW,206,0.0,2.0,84,0.00,,,0.00,,2013-06-20 13:11:00,
2013-06-20 09:22:00,81.0,74.0,30.05,WNW,291,0.0,2.0,79,0.00,,,0.00,,2013-06-20 13:22:00,
2013-06-20 09:33:00,81.0,74.0,30.05,WNW,291,0.0,2.0,79,0.00,,,0.00,,2013-06-20 13:33:00,
2013-06-20 09:42:00,81.0,74.0,30.05,WNW,291,0.0,2.0,79,0.00,,,0.00,,2013-06-20 13:42:00,
2013-06-20 09:53:00,82.0,74.0,30.06,NW,320,1.0,2.0,77,0.00,,,0.00,,2013-06-20 13:53:00,
2013-06-20 10:02:00,82.0,74.0,30.06,NW,320,1.0,2.0,77,0.00,,,0.00,,2013-06-20 14:02:00,
2013-06-20 10:11:00,82.0,74.0,30.06,NW,320,1.0,2.0,77,0.00,,,0.00,,2013-06-20 14:11:00,
2013-06-20 10:22:00,84.0,75.0,30.06,South,175,0.0,2.0,75,0.00,,,0.00,,2013-06-20 14:22:00,
2013-06-20 10:32:00,84.0,75.0,30.06,South,175,0.0,2.0,75,0.00,,,0.00,,2013-06-20 14:32:00,
2013-06-20 10:42:00,84.0,75.0,30.06,South,175,0.0,2.0,75,0.00,,,0.00,,2013-06-20 14:42:00,
2013-06-20 10:53:00,85.0,75.0,30.05,SW,220,0.0,5.0,73,0.00,,,0.00,,2013-06-20 14:53:00,
2013-06-20 11:02:00,85.0,75.0,30.05,SW,220,0.0,5.0,73,0.00,,,0.00,,2013-06-20 15:02:00,
2013-06-20 11:11:00,85.0,75.0,30.05,SW,220,0.0,5.0,73,0.00,,,0.00,,2013-06-20 15:11:00,
2013-06-20 11:22:00,86.0,75.0,30.05,West,271,0.0,5.0,71,0.00,,,0.00,,2013-06-20 15:22:00,
2013-06-20 11:33:00,86.0,75.0,30.05,West,271,0.0,5.0,71,0.00,,,0.00,,2013-06-20 15:33:00,
2013-06-20 11:43:00,86.0,75.0,30.05,West,271,0.0,5.0,71,0.00,,,0.00,,2013-06-20 15:43:00,
2013-06-20 11:53:00,87.0,75.0,30.05,WNW,301,1.0,5.0,68,0.00,,,0.00,,2013-06-20 15:53:00,
2013-06-20 12:01:00,87.0,75.0,30.05,WNW,301,1.0,5.0,68,0.00,,,0.00,,2013-06-20 16:01:00,
2013-06-20 12:12:00,87.0,75.0,30.05,WNW,301,1.0,5.0,68,0.00,,,0.00,,2013-06-20 16:12:00,
2013-06-20 12:22:00,87.0,74.0,30.05,WNW,284,2.0,6.0,66,0.00,,,0.00,,2013-06-20 16:22:00,
2013-06-20 12:33:00,87.0,74.0,30.05,WNW,284,2.0,6.0,66,0.00,,,0.00,,2013-06-20 16:33:00,
2013-06-20 12:43:00,87.0,74.0,30.05,WNW,284,2.0,6.0,66,0.00,,,0.00,,2013-06-20 16:43:00,
2013-06-20 12:52:00,87.0,74.0,30.05,WNW,302,0.0,4.0,66,0.00,,,0.00,,2013-06-20 16:52:00,
2013-06-20 13:02:00,87.0,74.0,30.05,WNW,302,0.0,4.0,66,0.00,,,0.00,,2013-06-20 17:02:00,
2013-06-20 13:12:00,87.0,74.0,30.05,WNW,302,0.0,4.0,66,0.00,,,0.00,,2013-06-20 17:12:00,
2013-06-20 13:22:00,87.0,75.0,30.04,WNW,296,1.0,6.0,67,0.00,,,0.00,,2013-06-20 17:22:00,
2013-06-20 13:32:00,87.0,75.0,30.04,WNW,296,1.0,6.0,67,0.00,,,0.00,,2013-06-20 17:32:00,
2013-06-20 13:43:00,87.0,75.0,30.04,WNW,296,1.0,6.0,67,0.00,,,0.00,,2013-06-20 17:43:00,
2013-06-20 13:53:00,88.0,75.0,30.03,SW,230,0.0,6.0,65,0.00,,,0.00,,2013-06-20 17:53:00,
2013-06-20 14:01:00,88.0,75.0,30.03,SW,230,0.0,6.0,65,0.00,,,0.00,,2013-06-20 18:01:00,
2013-06-20 14:11:00,88.0,75.0,30.03,SW,230,0.0,6.0,65,0.00,,,0.00,,2013-06-20 18:11:00,
2013-06-20 14:22:00,89.0,73.0,30.03,WSW,237,4.0,8.0,59,0.00,,,0.00,,2013-06-20 18:22:00,
2013-06-20 14:33:00,89.0,73.0,30.03,WSW,237,4.0,8.0,59,0.00,,,0.00,,2013-06-20 18:33:00,
2013-06-20 14:43:00,89.0,73.0,30.03,WSW,237,4.0,8.0,59,0.00,,,0.00,,2013-06-20 18:43:00,
2013-06-20 14:53:00,91.0,74.0,30.01,SW,233,0.0,5.0,58,0.00,,,0.00,,2013-06-20 18:53:00,
2013-06-20 15:01:00,91.0,74.0,30.01,SW,233,0.0,5.0,58,0.00,,,0.00,,2013-06-20 19:01:00,
2013-06-20 15:11:00,91.0,74.0,30.01,SW,233,0.0,5.0,58,0.00,,,0.00,,2013-06-20 19:11:00,
2013-06-20 15:22:00,91.0,74.0,30.00,North,350,3.0,8.0,57,0.00,,,0.00,,2013-06-20 19:22:00,
2013-06-20 15:34:00,91.0,74.0,30.00,North,350,3.0,8.0,57,0.00,,,0.00,,2013-06-20 19:34:00,
2013-06-20 15:44:00,91.0,74.0,30.00,North,350,3.0,8.0,57,0.00,,,0.00,,2013-06-20 19:44:00,
2013-06-20 15:52:00,91.0,74.0,29.99,ENE,75,3.0,7.0,58,0.00,,,0.00,,2013-06-20 19:52:00,
2013-06-20 16:02:00,91.0,74.0,29.99,ENE,75,3.0,7.0,58,0.00,,,0.00,,2013-06-20 20:02:00,
2013-06-20 16:11:00,91.0,74.0,29.99,ENE,75,3.0,7.0,58,0.00,,,0.00,,2013-06-20 20:11:00,
2013-06-20 16:33:00,86.0,73.0,30.00,ENE,72,4.0,13.0,65,0.00,,,0.00,,2013-06-20 20:33:00,
2013-06-20 16:43:00,86.0,73.0,30.00,ENE,72,4.0,13.0,65,0.00,,,0.00,,2013-06-20 20:43:00,
2013-06-20 16:52:00,84.0,71.0,29.99,ENE,59,3.0,6.0,65,0.00,,,0.00,,2013-06-20 20:52:00,
2013-06-20 17:01:00,84.0,71.0,29.99,ENE,59,3.0,6.0,65,0.00,,,0.00,,2013-06-20 21:01:00,